Location: Mohawk View
(42.7837°N, 73.7885°W)
Time: 12:05:35
(UTC+00:00)

Cosmos 1954 Rocket - Pass Details

Date: 17 June 2021
Orbit: 752 x 781 km, 74.1° (Epoch: 26 July)

Event Time Altitude Azimuth Distance (km) Brightness Sun altitude
Rises 01:09:15 0° 342° (NNW) 3,276 8.4 -5.8°
Reaches altitude 10° 01:11:40 10° 345° (NNW) 2,345 7.5 -6.1°
Maximum altitude 01:16:58 65° 68° (ENE) 858 4.2 -6.8°
Drops below altitude 10° 01:22:14 10° 150° (SSE) 2,325 5.9 -7.6°
Enters shadow 01:22:44 - 151° (SSE) 2,520 6.1 -7.6°
